Time,TemperatureF,DewpointF,PressureIn,WindDirection,WindDirectionDegrees,WindSpeedMPH,WindSpeedGustMPH,Humidity,HourlyPrecipIn,Conditions,Clouds,dailyrainin,SoftwareType,DateUTC
2013-06-15 00:00:00,64.6,48.1,29.78,South,187,6.0,8.0,55,0.00,,,0.00,Wunderground v.1.15,2013-06-15 07:00:00,
2013-06-15 00:05:00,64.1,48.1,29.79,South,180,3.0,8.0,56,0.00,,,0.00,Wunderground v.1.15,2013-06-15 07:05:00,
2013-06-15 00:10:00,63.7,48.6,29.78,SSW,193,3.0,7.0,58,0.00,,,0.00,Wunderground v.1.15,2013-06-15 07:10:00,
2013-06-15 00:15:00,63.2,48.6,29.78,SSW,193,5.0,10.0,59,0.00,,,0.00,Wunderground v.1.15,2013-06-15 07:15:00,
2013-06-15 00:20:00,63.0,48.4,29.78,SSW,192,3.0,6.0,59,0.00,,,0.00,Wunderground v.1.15,2013-06-15 07:20:00,
2013-06-15 00:25:00,62.9,48.3,29.78,SSW,192,5.0,7.0,59,0.00,,,0.00,Wunderground v.1.15,2013-06-15 07:25:00,
2013-06-15 00:30:00,62.8,48.7,29.78,South,189,9.0,9.0,60,0.00,,,0.00,Wunderground v.1.15,2013-06-15 07:30:00,
2013-06-15 00:35:00,62.6,48.5,29.78,SSW,194,4.0,9.0,60,0.00,,,0.00,Wunderground v.1.15,2013-06-15 07:35:00,
2013-06-15 00:40:00,62.4,48.8,29.78,SSW,192,2.0,7.0,61,0.00,,,0.00,Wunderground v.1.15,2013-06-15 07:40:00,
2013-06-15 00:45:00,62.1,48.5,29.78,South,182,7.0,11.0,61,0.00,,,0.00,Wunderground v.1.15,2013-06-15 07:45:00,
2013-06-15 00:50:00,62.0,48.0,29.78,SSW,193,7.0,7.0,60,0.00,,,0.00,Wunderground v.1.15,2013-06-15 07:50:00,
2013-06-15 00:55:00,61.9,48.3,29.78,SSW,194,5.0,7.0,61,0.00,,,0.00,Wunderground v.1.15,2013-06-15 07:55:00,
2013-06-15 01:00:00,61.8,48.6,29.78,South,189,6.0,8.0,62,0.00,,,0.00,Wunderground v.1.15,2013-06-15 08:00:00,
2013-06-15 01:05:00,61.6,48.4,29.78,South,190,6.0,8.0,62,0.00,,,0.00,Wunderground v.1.15,2013-06-15 08:05:00,
2013-06-15 01:10:00,61.3,49.0,29.78,SSW,198,7.0,7.0,64,0.00,,,0.00,Wunderground v.1.15,2013-06-15 08:10:00,
2013-06-15 01:15:00,61.0,49.1,29.78,South,178,2.0,9.0,65,0.00,,,0.00,Wunderground v.1.15,2013-06-15 08:15:00,
2013-06-15 01:20:00,60.8,49.4,29.78,SSW,197,4.0,8.0,66,0.00,,,0.00,Wunderground v.1.15,2013-06-15 08:20:00,
2013-06-15 01:25:00,60.5,49.5,29.78,SSW,193,3.0,10.0,67,0.00,,,0.00,Wunderground v.1.15,2013-06-15 08:25:00,
2013-06-15 01:30:00,60.4,49.4,29.78,South,188,6.0,7.0,67,0.00,,,0.00,Wunderground v.1.15,2013-06-15 08:30:00,
2013-06-15 01:35:00,60.2,49.6,29.78,SSW,199,5.0,9.0,68,0.00,,,0.00,Wunderground v.1.15,2013-06-15 08:35:00,
2013-06-15 01:40:00,60.2,49.6,29.77,SSW,204,3.0,6.0,68,0.00,,,0.00,Wunderground v.1.15,2013-06-15 08:40:00,
2013-06-15 01:45:00,60.2,49.6,29.77,SSW,204,3.0,7.0,68,0.00,,,0.00,Wunderground v.1.15,2013-06-15 08:45:00,
2013-06-15 01:50:00,60.2,49.6,29.77,SSW,204,2.0,4.0,68,0.00,,,0.00,Wunderground v.1.15,2013-06-15 08:50:00,
2013-06-15 01:55:00,60.1,49.5,29.77,SSW,202,5.0,6.0,68,0.00,,,0.00,Wunderground v.1.15,2013-06-15 08:55:00,
2013-06-15 02:00:00,60.1,49.5,29.77,SSW,200,2.0,4.0,68,0.00,,,0.00,Wunderground v.1.15,2013-06-15 09:00:00,
2013-06-15 02:05:00,60.1,49.5,29.77,SSW,192,7.0,7.0,68,0.00,,,0.00,Wunderground v.1.15,2013-06-15 09:05:00,
2013-06-15 02:10:00,60.1,49.5,29.77,SSW,194,5.0,5.0,68,0.00,,,0.00,Wunderground v.1.15,2013-06-15 09:10:00,
2013-06-15 02:15:00,60.1,49.5,29.77,SSW,196,4.0,6.0,68,0.00,,,0.00,Wunderground v.1.15,2013-06-15 09:15:00,
2013-06-15 02:20:00,60.1,49.5,29.77,SSW,205,5.0,6.0,68,0.00,,,0.00,Wunderground v.1.15,2013-06-15 09:20:00,
2013-06-15 02:25:00,60.1,49.5,29.77,SSW,205,4.0,6.0,68,0.00,,,0.00,Wunderground v.1.15,2013-06-15 09:25:00,
2013-06-15 02:30:00,60.1,49.5,29.77,SSW,207,3.0,7.0,68,0.00,,,0.00,Wunderground v.1.15,2013-06-15 09:30:00,
2013-06-15 02:35:00,60.1,49.5,29.77,SSW,205,3.0,7.0,68,0.00,,,0.00,Wunderground v.1.15,2013-06-15 09:35:00,
2013-06-15 02:40:00,60.0,49.4,29.77,SSW,211,2.0,4.0,68,0.00,,,0.00,Wunderground v.1.15,2013-06-15 09:40:00,
2013-06-15 02:45:00,60.0,49.0,29.77,SSW,204,4.0,7.0,67,0.00,,,0.00,Wunderground v.1.15,2013-06-15 09:45:00,
2013-06-15 02:50:00,60.0,49.0,29.77,SSW,206,3.0,6.0,67,0.00,,,0.00,Wunderground v.1.15,2013-06-15 09:50:00,
2013-06-15 02:55:00,59.9,48.9,29.77,SSW,206,2.0,6.0,67,0.00,,,0.00,Wunderground v.1.15,2013-06-15 09:55:00,
2013-06-15 03:00:00,59.9,48.9,29.77,SSW,206,4.0,6.0,67,0.00,,,0.00,Wunderground v.1.15,2013-06-15 10:00:00,
2013-06-15 03:05:00,59.9,48.9,29.77,SSW,207,3.0,6.0,67,0.00,,,0.00,Wunderground v.1.15,2013-06-15 10:05:00,
2013-06-15 03:10:00,59.8,48.8,29.77,SSW,207,2.0,3.0,67,0.00,,,0.00,Wunderground v.1.15,2013-06-15 10:10:00,
2013-06-15 03:15:00,59.8,48.8,29.77,SSW,207,3.0,5.0,67,0.00,,,0.00,Wunderground v.1.15,2013-06-15 10:15:00,
2013-06-15 03:20:00,59.8,48.8,29.77,SSW,207,1.0,3.0,67,0.00,,,0.00,Wunderground v.1.15,2013-06-15 10:20:00,
2013-06-15 03:25:00,59.7,48.3,29.77,SSW,207,2.0,5.0,66,0.00,,,0.00,Wunderground v.1.15,2013-06-15 10:25:00,
2013-06-15 03:30:00,59.8,48.4,29.77,SSW,207,1.0,2.0,66,0.00,,,0.00,Wunderground v.1.15,2013-06-15 10:30:00,
2013-06-15 03:35:00,59.8,48.0,29.77,SSW,207,2.0,4.0,65,0.00,,,0.00,Wunderground v.1.15,2013-06-15 10:35:00,
2013-06-15 03:40:00,59.9,47.7,29.77,SSW,207,3.0,3.0,64,0.00,,,0.00,Wunderground v.1.15,2013-06-15 10:40:00,
2013-06-15 03:45:00,59.9,47.7,29.77,SSW,207,1.0,4.0,64,0.00,,,0.00,Wunderground v.1.15,2013-06-15 10:45:00,
2013-06-15 03:50:00,59.9,47.7,29.77,SSW,207,2.0,3.0,64,0.00,,,0.00,Wunderground v.1.15,2013-06-15 10:50:00,
2013-06-15 03:55:00,59.9,47.7,29.77,SSW,207,3.0,5.0,64,0.00,,,0.00,Wunderground v.1.15,2013-06-15 10:55:00,
2013-06-15 04:00:00,60.0,47.8,29.78,SSW,207,2.0,4.0,64,0.00,,,0.00,Wunderground v.1.15,2013-06-15 11:00:00,
2013-06-15 04:05:00,59.9,47.7,29.78,SSW,207,3.0,5.0,64,0.00,,,0.00,Wunderground v.1.15,2013-06-15 11:05:00,
2013-06-15 04:10:00,59.8,47.6,29.77,SSW,207,0.0,2.0,64,0.00,,,0.00,Wunderground v.1.15,2013-06-15 11:10:00,
2013-06-15 04:15:00,59.8,47.2,29.78,SSW,207,1.0,4.0,63,0.00,,,0.00,Wunderground v.1.15,2013-06-15 11:15:00,
2013-06-15 04:20:00,59.7,47.5,29.78,SSW,207,1.0,3.0,64,0.00,,,0.00,Wunderground v.1.15,2013-06-15 11:20:00,
2013-06-15 04:25:00,59.7,47.5,29.78,SSW,207,0.0,5.0,64,0.00,,,0.00,Wunderground v.1.15,2013-06-15 11:25:00,
2013-06-15 04:30:00,59.6,47.4,29.78,SSW,207,2.0,3.0,64,0.00,,,0.00,Wunderground v.1.15,2013-06-15 11:30:00,
2013-06-15 04:35:00,59.6,47.8,29.78,SSW,207,1.0,3.0,65,0.00,,,0.00,Wunderground v.1.15,2013-06-15 11:35:00,
2013-06-15 04:40:00,59.5,47.3,29.78,SSW,207,2.0,5.0,64,0.00,,,0.00,Wunderground v.1.15,2013-06-15 11:40:00,
2013-06-15 04:45:00,59.5,47.7,29.78,SSW,207,1.0,6.0,65,0.00,,,0.00,Wunderground v.1.15,2013-06-15 11:45:00,
2013-06-15 04:50:00,59.4,47.6,29.78,SSW,207,1.0,4.0,65,0.00,,,0.00,Wunderground v.1.15,2013-06-15 11:50:00,
2013-06-15 04:55:00,59.3,47.5,29.78,SSW,207,1.0,4.0,65,0.00,,,0.00,Wunderground v.1.15,2013-06-15 11:55:00,
2013-06-15 05:00:00,59.2,47.4,29.79,SSW,207,3.0,3.0,65,0.00,,,0.00,Wunderground v.1.15,2013-06-15 12:00:00,
2013-06-15 05:05:00,59.1,47.3,29.79,SSW,207,0.0,3.0,65,0.00,,,0.00,Wunderground v.1.15,2013-06-15 12:05:00,
2013-06-15 05:10:00,59.1,47.3,29.79,SSW,207,0.0,1.0,65,0.00,,,0.00,Wunderground v.1.15,2013-06-15 12:10:00,
2013-06-15 05:15:00,59.0,46.8,29.79,SSW,207,0.0,1.0,64,0.00,,,0.00,Wunderground v.1.15,2013-06-15 12:15:00,
2013-06-15 05:20:00,59.0,47.2,29.79,SSW,207,0.0,0.0,65,0.00,,,0.00,Wunderground v.1.15,2013-06-15 12:20:00,
2013-06-15 05:25:00,58.9,47.2,29.79,SSW,207,2.0,3.0,65,0.00,,,0.00,Wunderground v.1.15,2013-06-15 12:25:00,
2013-06-15 05:30:00,58.7,47.4,29.79,SSW,207,2.0,4.0,66,0.00,,,0.00,Wunderground v.1.15,2013-06-15 12:30:00,
2013-06-15 05:35:00,58.5,47.6,29.80,SSW,207,3.0,4.0,67,0.00,,,0.00,Wunderground v.1.15,2013-06-15 12:35:00,
2013-06-15 05:40:00,58.3,48.2,29.80,SSW,207,2.0,4.0,69,0.00,,,0.00,Wunderground v.1.15,2013-06-15 12:40:00,
2013-06-15 05:45:00,58.1,48.0,29.80,SSW,207,0.0,4.0,69,0.00,,,0.00,Wunderground v.1.15,2013-06-15 12:45:00,
2013-06-15 05:50:00,57.9,48.2,29.80,SSW,207,1.0,2.0,70,0.00,,,0.00,Wunderground v.1.15,2013-06-15 12:50:00,
2013-06-15 05:55:00,57.7,48.0,29.80,SSW,207,3.0,3.0,70,0.00,,,0.00,Wunderground v.1.15,2013-06-15 12:55:00,
2013-06-15 06:00:00,57.5,48.2,29.80,SSW,207,1.0,2.0,71,0.00,,,0.00,Wunderground v.1.15,2013-06-15 13:00:00,
2013-06-15 06:05:00,57.3,48.0,29.81,SSW,207,2.0,3.0,71,0.00,,,0.00,Wunderground v.1.15,2013-06-15 13:05:00,
2013-06-15 06:10:00,57.2,48.3,29.81,SSW,207,0.0,1.0,72,0.00,,,0.00,Wunderground v.1.15,2013-06-15 13:10:00,
2013-06-15 06:15:00,57.1,48.2,29.81,SSW,207,3.0,3.0,72,0.00,,,0.00,Wunderground v.1.15,2013-06-15 13:15:00,
2013-06-15 06:20:00,57.0,48.4,29.81,SSW,207,3.0,3.0,73,0.00,,,0.00,Wunderground v.1.15,2013-06-15 13:20:00,
2013-06-15 06:25:00,57.0,48.4,29.82,SSW,207,1.0,4.0,73,0.00,,,0.00,Wunderground v.1.15,2013-06-15 13:25:00,
2013-06-15 06:30:00,57.1,48.5,29.82,SSW,207,3.0,3.0,73,0.00,,,0.00,Wunderground v.1.15,2013-06-15 13:30:00,
2013-06-15 06:35:00,57.1,48.5,29.82,SSW,207,1.0,5.0,73,0.00,,,0.00,Wunderground v.1.15,2013-06-15 13:35:00,
2013-06-15 06:40:00,57.2,48.6,29.82,SSW,207,2.0,2.0,73,0.00,,,0.00,Wunderground v.1.15,2013-06-15 13:40:00,
2013-06-15 06:45:00,57.3,48.7,29.82,SSW,207,3.0,3.0,73,0.00,,,0.00,Wunderground v.1.15,2013-06-15 13:45:00,
2013-06-15 06:50:00,57.4,48.8,29.82,SSW,207,2.0,3.0,73,0.00,,,0.00,Wunderground v.1.15,2013-06-15 13:50:00,
2013-06-15 06:55:00,57.6,48.6,29.82,SSW,207,0.0,4.0,72,0.00,,,0.00,Wunderground v.1.15,2013-06-15 13:55:00,
2013-06-15 07:00:00,57.8,48.8,29.82,SSW,207,3.0,4.0,72,0.00,,,0.00,Wunderground v.1.15,2013-06-15 14:00:00,
2013-06-15 07:05:00,58.1,49.1,29.82,SSW,207,1.0,6.0,72,0.00,,,0.00,Wunderground v.1.15,2013-06-15 14:05:00,
2013-06-15 07:10:00,58.3,49.3,29.83,SSW,207,3.0,3.0,72,0.00,,,0.00,Wunderground v.1.15,2013-06-15 14:10:00,
2013-06-15 07:15:00,58.6,49.6,29.83,SSW,207,2.0,5.0,72,0.00,,,0.00,Wunderground v.1.15,2013-06-15 14:15:00,
2013-06-15 07:20:00,59.0,49.6,29.83,SSW,207,1.0,2.0,71,0.00,,,0.00,Wunderground v.1.15,2013-06-15 14:20:00,
2013-06-15 07:25:00,59.5,49.7,29.83,SSW,207,1.0,5.0,70,0.00,,,0.00,Wunderground v.1.15,2013-06-15 14:25:00,
2013-06-15 07:30:00,60.0,49.8,29.83,SSW,207,3.0,4.0,69,0.00,,,0.00,Wunderground v.1.15,2013-06-15 14:30:00,
2013-06-15 07:35:00,60.5,49.9,29.83,SSW,207,3.0,4.0,68,0.00,,,0.00,Wunderground v.1.15,2013-06-15 14:35:00,
2013-06-15 07:40:00,61.1,50.1,29.83,SSW,207,0.0,2.0,67,0.00,,,0.00,Wunderground v.1.15,2013-06-15 14:40:00,
2013-06-15 07:45:00,61.6,50.1,29.83,SSW,207,1.0,5.0,66,0.00,,,0.00,Wunderground v.1.15,2013-06-15 14:45:00,
2013-06-15 07:50:00,62.3,50.4,29.83,SSW,207,4.0,4.0,65,0.00,,,0.00,Wunderground v.1.15,2013-06-15 14:50:00,
2013-06-15 07:55:00,63.0,50.6,29.83,South,173,5.0,7.0,64,0.00,,,0.00,Wunderground v.1.15,2013-06-15 14:55:00,
2013-06-15 08:00:00,63.4,50.6,29.84,South,175,1.0,4.0,63,0.00,,,0.00,Wunderground v.1.15,2013-06-15 15:00:00,
2013-06-15 08:05:00,63.6,50.8,29.84,South,175,3.0,5.0,63,0.00,,,0.00,Wunderground v.1.15,2013-06-15 15:05:00,
2013-06-15 08:10:00,64.0,50.7,29.84,South,175,4.0,4.0,62,0.00,,,0.00,Wunderground v.1.15,2013-06-15 15:10:00,
2013-06-15 08:15:00,64.4,51.1,29.84,South,180,3.0,7.0,62,0.00,,,0.00,Wunderground v.1.15,2013-06-15 15:15:00,
2013-06-15 08:20:00,64.7,50.9,29.84,South,180,3.0,4.0,61,0.00,,,0.00,Wunderground v.1.15,2013-06-15 15:20:00,
2013-06-15 08:25:00,65.1,51.3,29.84,South,186,1.0,8.0,61,0.00,,,0.00,Wunderground v.1.15,2013-06-15 15:25:00,
2013-06-15 08:30:00,65.4,51.1,29.84,South,190,5.0,5.0,60,0.00,,,0.00,Wunderground v.1.15,2013-06-15 15:30:00,
2013-06-15 08:35:00,65.7,51.4,29.84,South,188,1.0,6.0,60,0.00,,,0.00,Wunderground v.1.15,2013-06-15 15:35:00,
2013-06-15 08:40:00,66.1,51.4,29.84,South,188,2.0,3.0,59,0.00,,,0.00,Wunderground v.1.15,2013-06-15 15:40:00,
2013-06-15 08:45:00,66.5,51.7,29.84,South,188,3.0,5.0,59,0.00,,,0.00,Wunderground v.1.15,2013-06-15 15:45:00,
2013-06-15 08:50:00,67.1,51.8,29.85,South,189,2.0,3.0,58,0.00,,,0.00,Wunderground v.1.15,2013-06-15 15:50:00,
2013-06-15 08:54:00,67.5,51.7,29.85,South,185,4.0,8.0,57,0.00,,,0.00,Wunderground v.1.15,2013-06-15 15:54:00,
2013-06-15 08:59:00,67.9,52.1,29.85,SSW,194,6.0,8.0,57,0.00,,,0.00,Wunderground v.1.15,2013-06-15 15:59:00,
2013-06-15 09:04:00,68.1,52.3,29.85,South,182,2.0,7.0,57,0.00,,,0.00,Wunderground v.1.15,2013-06-15 16:04:00,
2013-06-15 09:09:00,68.2,51.9,29.85,South,190,3.0,7.0,56,0.00,,,0.00,Wunderground v.1.15,2013-06-15 16:09:00,
2013-06-15 09:14:00,68.4,52.1,29.85,South,173,3.0,10.0,56,0.00,,,0.00,Wunderground v.1.15,2013-06-15 16:14:00,
2013-06-15 09:19:00,68.6,52.3,29.86,South,182,5.0,10.0,56,0.00,,,0.00,Wunderground v.1.15,2013-06-15 16:19:00,
2013-06-15 09:24:00,68.8,52.5,29.86,South,169,6.0,9.0,56,0.00,,,0.00,Wunderground v.1.15,2013-06-15 16:24:00,
2013-06-15 09:29:00,68.9,52.6,29.86,South,176,5.0,11.0,56,0.00,,,0.00,Wunderground v.1.15,2013-06-15 16:29:00,
2013-06-15 09:34:00,69.1,52.2,29.86,SSW,205,3.0,9.0,55,0.00,,,0.00,Wunderground v.1.15,2013-06-15 16:34:00,
2013-06-15 09:39:00,69.2,52.3,29.86,South,184,5.0,9.0,55,0.00,,,0.00,Wunderground v.1.15,2013-06-15 16:39:00,
2013-06-15 09:44:00,69.4,52.5,29.86,South,188,7.0,10.0,55,0.00,,,0.00,Wunderground v.1.15,2013-06-15 16:44:00,
2013-06-15 09:49:00,69.5,52.1,29.86,SSW,199,4.0,10.0,54,0.00,,,0.00,Wunderground v.1.15,2013-06-15 16:49:00,
2013-06-15 09:54:00,69.6,52.2,29.86,SSW,198,8.0,10.0,54,0.00,,,0.00,Wunderground v.1.15,2013-06-15 16:54:00,
2013-06-15 09:59:00,69.9,52.0,29.86,SSW,192,4.0,10.0,53,0.00,,,0.00,Wunderground v.1.15,2013-06-15 16:59:00,
2013-06-15 10:04:00,70.2,52.3,29.86,South,185,5.0,9.0,53,0.00,,,0.00,Wunderground v.1.15,2013-06-15 17:04:00,
2013-06-15 10:09:00,70.5,52.0,29.86,SSW,193,7.0,12.0,52,0.00,,,0.00,Wunderground v.1.15,2013-06-15 17:09:00,
2013-06-15 10:14:00,70.6,52.1,29.86,SSW,196,1.0,10.0,52,0.00,,,0.00,Wunderground v.1.15,2013-06-15 17:14:00,
2013-06-15 10:19:00,70.7,52.2,29.86,SSE,155,4.0,13.0,52,0.00,,,0.00,Wunderground v.1.15,2013-06-15 17:19:00,
2013-06-15 10:24:00,70.9,52.4,29.86,SSW,196,5.0,12.0,52,0.00,,,0.00,Wunderground v.1.15,2013-06-15 17:24:00,
2013-06-15 10:29:00,70.9,52.4,29.86,South,182,5.0,12.0,52,0.00,,,0.00,Wunderground v.1.15,2013-06-15 17:29:00,
2013-06-15 10:34:00,71.1,52.0,29.86,SSW,200,5.0,11.0,51,0.00,,,0.00,Wunderground v.1.15,2013-06-15 17:34:00,
2013-06-15 10:39:00,71.3,52.8,29.86,South,184,5.0,12.0,52,0.00,,,0.00,Wunderground v.1.15,2013-06-15 17:39:00,
2013-06-15 10:44:00,71.7,52.6,29.86,SSE,162,3.0,10.0,51,0.00,,,0.00,Wunderground v.1.15,2013-06-15 17:44:00,
2013-06-15 10:49:00,72.0,52.3,29.86,South,190,9.0,11.0,50,0.00,,,0.00,Wunderground v.1.15,2013-06-15 17:49:00,
2013-06-15 10:54:00,72.4,52.2,29.86,SSW,196,2.0,11.0,49,0.00,,,0.00,Wunderground v.1.15,2013-06-15 17:54:00,
2013-06-15 10:59:00,72.9,52.6,29.86,SSE,166,7.0,11.0,49,0.00,,,0.00,Wunderground v.1.15,2013-06-15 17:59:00,
2013-06-15 11:04:00,73.3,52.4,29.86,SW,219,6.0,12.0,48,0.00,,,0.00,Wunderground v.1.15,2013-06-15 18:04:00,
2013-06-15 11:09:00,73.7,51.6,29.86,South,182,3.0,12.0,46,0.00,,,0.00,Wunderground v.1.15,2013-06-15 18:09:00,
2013-06-15 11:14:00,74.0,51.9,29.86,SSW,196,10.0,12.0,46,0.00,,,0.00,Wunderground v.1.15,2013-06-15 18:14:00,
2013-06-15 11:19:00,74.3,52.8,29.86,SSW,192,6.0,12.0,47,0.00,,,0.00,Wunderground v.1.15,2013-06-15 18:19:00,
2013-06-15 11:24:00,74.6,52.4,29.87,SSE,152,4.0,11.0,46,0.00,,,0.00,Wunderground v.1.15,2013-06-15 18:24:00,
2013-06-15 11:29:00,75.0,52.8,29.87,SSE,163,7.0,12.0,46,0.00,,,0.00,Wunderground v.1.15,2013-06-15 18:29:00,
2013-06-15 11:34:00,75.5,53.3,29.87,South,186,8.0,11.0,46,0.00,,,0.00,Wunderground v.1.15,2013-06-15 18:34:00,
2013-06-15 11:39:00,75.6,52.8,29.87,South,180,6.0,12.0,45,0.00,,,0.00,Wunderground v.1.15,2013-06-15 18:39:00,
2013-06-15 11:44:00,75.7,52.8,29.87,South,189,7.0,12.0,45,0.00,,,0.00,Wunderground v.1.15,2013-06-15 18:44:00,
2013-06-15 11:49:00,76.1,52.6,29.87,South,176,11.0,12.0,44,0.00,,,0.00,Wunderground v.1.15,2013-06-15 18:49:00,
2013-06-15 11:54:00,76.5,53.0,29.87,SSE,160,7.0,11.0,44,0.00,,,0.00,Wunderground v.1.15,2013-06-15 18:54:00,
2013-06-15 11:59:00,76.7,52.5,29.87,South,180,5.0,12.0,43,0.00,,,0.00,Wunderground v.1.15,2013-06-15 18:59:00,
2013-06-15 12:04:00,76.7,52.5,29.87,South,179,5.0,11.0,43,0.00,,,0.00,Wunderground v.1.15,2013-06-15 19:04:00,
2013-06-15 12:09:00,76.9,52.1,29.87,SSW,200,4.0,12.0,42,0.00,,,0.00,Wunderground v.1.15,2013-06-15 19:09:00,
2013-06-15 12:14:00,77.1,52.2,29.87,South,179,3.0,12.0,42,0.00,,,0.00,Wunderground v.1.15,2013-06-15 19:14:00,
2013-06-15 12:19:00,77.4,52.5,29.87,SW,219,5.0,12.0,42,0.00,,,0.00,Wunderground v.1.15,2013-06-15 19:19:00,
2013-06-15 12:24:00,77.5,52.6,29.87,SSW,206,9.0,14.0,42,0.00,,,0.00,Wunderground v.1.15,2013-06-15 19:24:00,
2013-06-15 12:29:00,77.5,53.2,29.87,South,180,4.0,14.0,43,0.00,,,0.00,Wunderground v.1.15,2013-06-15 19:29:00,
2013-06-15 12:34:00,77.9,53.0,29.86,SSE,163,5.0,17.0,42,0.00,,,0.00,Wunderground v.1.15,2013-06-15 19:34:00,
2013-06-15 12:39:00,78.1,52.5,29.86,South,173,4.0,17.0,41,0.00,,,0.00,Wunderground v.1.15,2013-06-15 19:39:00,
2013-06-15 12:44:00,78.7,53.0,29.86,WSW,246,8.0,16.0,41,0.00,,,0.00,Wunderground v.1.15,2013-06-15 19:44:00,
2013-06-15 12:49:00,78.6,52.3,29.86,SSW,200,3.0,16.0,40,0.00,,,0.00,Wunderground v.1.15,2013-06-15 19:49:00,
2013-06-15 12:54:00,78.5,52.2,29.87,SSW,198,11.0,14.0,40,0.00,,,0.00,Wunderground v.1.15,2013-06-15 19:54:00,
2013-06-15 12:59:00,78.4,52.7,29.86,SSW,209,7.0,15.0,41,0.00,,,0.00,Wunderground v.1.15,2013-06-15 19:59:00,
2013-06-15 13:04:00,78.4,52.1,29.86,South,191,5.0,12.0,40,0.00,,,0.00,Wunderground v.1.15,2013-06-15 20:04:00,
2013-06-15 13:09:00,78.9,51.8,29.86,WSW,237,11.0,15.0,39,0.00,,,0.00,Wunderground v.1.15,2013-06-15 20:09:00,
2013-06-15 13:14:00,79.0,51.9,29.86,SSE,165,6.0,14.0,39,0.00,,,0.00,Wunderground v.1.15,2013-06-15 20:14:00,
2013-06-15 13:19:00,79.2,50.7,29.86,South,176,4.0,16.0,37,0.00,,,0.00,Wunderground v.1.15,2013-06-15 20:19:00,
2013-06-15 13:24:00,79.5,52.4,29.86,SW,219,7.0,16.0,39,0.00,,,0.00,Wunderground v.1.15,2013-06-15 20:24:00,
2013-06-15 13:29:00,79.9,52.0,29.86,SW,227,5.0,16.0,38,0.00,,,0.00,Wunderground v.1.15,2013-06-15 20:29:00,
2013-06-15 13:34:00,80.5,53.3,29.86,SSW,197,4.0,16.0,39,0.00,,,0.00,Wunderground v.1.15,2013-06-15 20:34:00,
2013-06-15 13:39:00,80.9,52.9,29.86,SSW,210,7.0,16.0,38,0.00,,,0.00,Wunderground v.1.15,2013-06-15 20:39:00,
2013-06-15 13:44:00,81.1,50.9,29.86,SSW,213,7.0,14.0,35,0.00,,,0.00,Wunderground v.1.15,2013-06-15 20:44:00,
2013-06-15 13:49:00,81.1,52.4,29.86,SSW,204,11.0,14.0,37,0.00,,,0.00,Wunderground v.1.15,2013-06-15 20:49:00,
2013-06-15 13:54:00,81.1,53.1,29.86,SSW,212,7.0,14.0,38,0.00,,,0.00,Wunderground v.1.15,2013-06-15 20:54:00,
2013-06-15 13:59:00,81.1,53.8,29.86,SW,218,14.0,16.0,39,0.00,,,0.00,Wunderground v.1.15,2013-06-15 20:59:00,
2013-06-15 14:04:00,81.3,54.0,29.85,SSW,209,6.0,15.0,39,0.00,,,0.00,Wunderground v.1.15,2013-06-15 21:04:00,
2013-06-15 14:09:00,81.6,54.2,29.85,SSW,202,7.0,15.0,39,0.00,,,0.00,Wunderground v.1.15,2013-06-15 21:09:00,
2013-06-15 14:14:00,81.9,53.8,29.85,SSW,207,11.0,15.0,38,0.00,,,0.00,Wunderground v.1.15,2013-06-15 21:14:00,
2013-06-15 14:19:00,81.6,53.5,29.85,South,189,4.0,15.0,38,0.00,,,0.00,Wunderground v.1.15,2013-06-15 21:19:00,
2013-06-15 14:24:00,81.6,53.5,29.85,SSW,201,9.0,17.0,38,0.00,,,0.00,Wunderground v.1.15,2013-06-15 21:24:00,
2013-06-15 14:29:00,81.5,54.2,29.85,SSW,209,7.0,17.0,39,0.00,,,0.00,Wunderground v.1.15,2013-06-15 21:29:00,
2013-06-15 14:34:00,81.6,54.2,29.85,South,175,7.0,18.0,39,0.00,,,0.00,Wunderground v.1.15,2013-06-15 21:34:00,
2013-06-15 14:39:00,82.0,54.6,29.85,SSW,210,7.0,18.0,39,0.00,,,0.00,Wunderground v.1.15,2013-06-15 21:39:00,
2013-06-15 14:44:00,82.6,55.1,29.84,SSE,168,8.0,15.0,39,0.00,,,0.00,Wunderground v.1.15,2013-06-15 21:44:00,
2013-06-15 14:49:00,82.9,54.7,29.84,SSW,203,4.0,15.0,38,0.00,,,0.00,Wunderground v.1.15,2013-06-15 21:49:00,
2013-06-15 14:54:00,83.2,55.0,29.84,SSW,192,7.0,14.0,38,0.00,,,0.00,Wunderground v.1.15,2013-06-15 21:54:00,
2013-06-15 14:59:00,83.0,54.8,29.84,South,188,5.0,15.0,38,0.00,,,0.00,Wunderground v.1.15,2013-06-15 21:59:00,
2013-06-15 15:04:00,83.1,54.9,29.84,South,169,5.0,15.0,38,0.00,,,0.00,Wunderground v.1.15,2013-06-15 22:04:00,
2013-06-15 15:09:00,83.3,55.0,29.84,SSE,167,5.0,15.0,38,0.00,,,0.00,Wunderground v.1.15,2013-06-15 22:09:00,
2013-06-15 15:14:00,83.7,56.1,29.84,SSW,213,7.0,13.0,39,0.00,,,0.00,Wunderground v.1.15,2013-06-15 22:14:00,
2013-06-15 15:19:00,84.0,56.4,29.84,South,185,4.0,15.0,39,0.00,,,0.00,Wunderground v.1.15,2013-06-15 22:19:00,
2013-06-15 15:24:00,84.3,55.9,29.84,SSW,192,6.0,14.0,38,0.00,,,0.00,Wunderground v.1.15,2013-06-15 22:24:00,
2013-06-15 15:29:00,84.0,56.4,29.83,South,186,4.0,15.0,39,0.00,,,0.00,Wunderground v.1.15,2013-06-15 22:29:00,
2013-06-15 15:34:00,83.8,56.2,29.83,South,177,3.0,16.0,39,0.00,,,0.00,Wunderground v.1.15,2013-06-15 22:34:00,
2013-06-15 15:39:00,84.3,56.6,29.83,SSW,205,7.0,16.0,39,0.00,,,0.00,Wunderground v.1.15,2013-06-15 22:39:00,
2013-06-15 15:44:00,83.8,55.5,29.83,WSW,243,8.0,16.0,38,0.00,,,0.00,Wunderground v.1.15,2013-06-15 22:44:00,
2013-06-15 15:49:00,83.4,55.1,29.83,SW,223,9.0,16.0,38,0.00,,,0.00,Wunderground v.1.15,2013-06-15 22:49:00,
2013-06-15 15:54:00,83.3,55.8,29.83,SW,233,11.0,13.0,39,0.00,,,0.00,Wunderground v.1.15,2013-06-15 22:54:00,
2013-06-15 15:59:00,83.5,55.9,29.83,SSW,213,7.0,16.0,39,0.00,,,0.00,Wunderground v.1.15,2013-06-15 22:59:00,
2013-06-15 16:04:00,83.5,55.9,29.83,SSW,200,8.0,16.0,39,0.00,,,0.00,Wunderground v.1.15,2013-06-15 23:04:00,
2013-06-15 16:09:00,83.5,55.9,29.83,South,190,5.0,18.0,39,0.00,,,0.00,Wunderground v.1.15,2013-06-15 23:09:00,
2013-06-15 16:14:00,83.5,56.6,29.83,SE,137,10.0,16.0,40,0.00,,,0.00,Wunderground v.1.15,2013-06-15 23:14:00,
2013-06-15 16:19:00,83.9,56.3,29.83,SW,225,4.0,16.0,39,0.00,,,0.00,Wunderground v.1.15,2013-06-15 23:19:00,
2013-06-15 16:24:00,84.0,55.7,29.83,SSW,211,7.0,15.0,38,0.00,,,0.00,Wunderground v.1.15,2013-06-15 23:24:00,
2013-06-15 16:29:00,83.8,56.2,29.83,SW,223,4.0,15.0,39,0.00,,,0.00,Wunderground v.1.15,2013-06-15 23:29:00,
2013-06-15 16:34:00,84.1,55.7,29.83,SW,221,8.0,13.0,38,0.00,,,0.00,Wunderground v.1.15,2013-06-15 23:34:00,
2013-06-15 16:39:00,84.2,55.1,29.83,SW,223,5.0,13.0,37,0.00,,,0.00,Wunderground v.1.15,2013-06-15 23:39:00,
2013-06-15 16:44:00,84.3,55.2,29.83,WSW,238,10.0,13.0,37,0.00,,,0.00,Wunderground v.1.15,2013-06-15 23:44:00,
2013-06-15 16:49:00,84.2,55.1,29.83,SSW,203,9.0,15.0,37,0.00,,,0.00,Wunderground v.1.15,2013-06-15 23:49:00,
2013-06-15 16:54:00,84.6,55.5,29.83,SSW,206,9.0,15.0,37,0.00,,,0.00,Wunderground v.1.15,2013-06-15 23:54:00,
2013-06-15 16:59:00,84.9,55.0,29.83,SW,228,4.0,15.0,36,0.00,,,0.00,Wunderground v.1.15,2013-06-15 23:59:00,
2013-06-15 17:04:00,84.9,55.7,29.83,SSE,167,20.0,20.0,37,0.00,,,0.00,Wunderground v.1.15,2013-06-16 00:04:00,
2013-06-15 17:09:00,84.1,55.0,29.83,SSW,195,5.0,20.0,37,0.00,,,0.00,Wunderground v.1.15,2013-06-16 00:09:00,
2013-06-15 17:14:00,84.1,55.0,29.83,SSW,207,7.0,13.0,37,0.00,,,0.00,Wunderground v.1.15,2013-06-16 00:14:00,
2013-06-15 17:19:00,84.2,55.1,29.83,South,179,8.0,13.0,37,0.00,,,0.00,Wunderground v.1.15,2013-06-16 00:19:00,
2013-06-15 17:24:00,84.1,55.0,29.83,South,188,4.0,14.0,37,0.00,,,0.00,Wunderground v.1.15,2013-06-16 00:24:00,
2013-06-15 17:29:00,83.8,54.7,29.83,SSW,204,3.0,14.0,37,0.00,,,0.00,Wunderground v.1.15,2013-06-16 00:29:00,
2013-06-15 17:34:00,83.6,54.6,29.83,South,182,6.0,15.0,37,0.00,,,0.00,Wunderground v.1.15,2013-06-16 00:34:00,
2013-06-15 17:39:00,83.0,54.8,29.83,SSW,209,4.0,17.0,38,0.00,,,0.00,Wunderground v.1.15,2013-06-16 00:39:00,
2013-06-15 17:44:00,82.4,55.0,29.83,South,173,13.0,15.0,39,0.00,,,0.00,Wunderground v.1.15,2013-06-16 00:44:00,
2013-06-15 17:49:00,81.6,54.9,29.83,SSE,162,5.0,15.0,40,0.00,,,0.00,Wunderground v.1.15,2013-06-16 00:49:00,
2013-06-15 17:54:00,80.8,54.2,29.83,SSE,154,12.0,16.0,40,0.00,,,0.00,Wunderground v.1.15,2013-06-16 00:54:00,
2013-06-15 17:59:00,80.6,54.0,29.83,South,171,3.0,16.0,40,0.00,,,0.00,Wunderground v.1.15,2013-06-16 00:59:00,
2013-06-15 18:04:00,80.7,54.1,29.83,SE,144,7.0,14.0,40,0.00,,,0.00,Wunderground v.1.15,2013-06-16 01:04:00,
2013-06-15 18:09:00,80.3,53.8,29.83,SSE,159,12.0,16.0,40,0.00,,,0.00,Wunderground v.1.15,2013-06-16 01:09:00,
2013-06-15 18:14:00,80.1,54.3,29.83,SSW,198,5.0,16.0,41,0.00,,,0.00,Wunderground v.1.15,2013-06-16 01:14:00,
2013-06-15 18:19:00,79.6,53.8,29.83,South,169,15.0,17.0,41,0.00,,,0.00,Wunderground v.1.15,2013-06-16 01:19:00,
2013-06-15 18:24:00,78.9,53.2,29.83,SSE,164,4.0,18.0,41,0.00,,,0.00,Wunderground v.1.15,2013-06-16 01:24:00,
2013-06-15 18:29:00,78.2,53.2,29.83,SSE,159,12.0,19.0,42,0.00,,,0.00,Wunderground v.1.15,2013-06-16 01:29:00,
2013-06-15 18:34:00,77.3,53.1,29.83,SSE,164,9.0,15.0,43,0.00,,,0.00,Wunderground v.1.15,2013-06-16 01:34:00,
2013-06-15 18:39:00,76.7,53.1,29.83,South,190,12.0,17.0,44,0.00,,,0.00,Wunderground v.1.15,2013-06-16 01:39:00,
2013-06-15 18:44:00,76.2,53.3,29.83,SSW,205,8.0,15.0,45,0.00,,,0.00,Wunderground v.1.15,2013-06-16 01:44:00,
2013-06-15 18:49:00,75.8,52.9,29.83,South,184,6.0,17.0,45,0.00,,,0.00,Wunderground v.1.15,2013-06-16 01:49:00,
2013-06-15 18:54:00,75.5,52.7,29.83,SSW,206,14.0,17.0,45,0.00,,,0.00,Wunderground v.1.15,2013-06-16 01:54:00,
2013-06-15 18:59:00,75.1,52.9,29.84,SSW,200,12.0,18.0,46,0.00,,,0.00,Wunderground v.1.15,2013-06-16 01:59:00,
2013-06-15 19:04:00,74.6,52.4,29.84,SSW,196,9.0,16.0,46,0.00,,,0.00,Wunderground v.1.15,2013-06-16 02:04:00,
2013-06-15 19:09:00,74.1,52.6,29.84,South,169,4.0,16.0,47,0.00,,,0.00,Wunderground v.1.15,2013-06-16 02:09:00,
2013-06-15 19:14:00,73.8,52.3,29.84,South,169,13.0,17.0,47,0.00,,,0.00,Wunderground v.1.15,2013-06-16 02:14:00,
2013-06-15 19:19:00,72.9,52.1,29.84,SW,219,15.0,18.0,48,0.00,,,0.00,Wunderground v.1.15,2013-06-16 02:19:00,
2013-06-15 19:24:00,71.9,51.7,29.84,SSW,203,8.0,17.0,49,0.00,,,0.00,Wunderground v.1.15,2013-06-16 02:24:00,
2013-06-15 19:29:00,71.2,51.6,29.84,SSW,207,13.0,19.0,50,0.00,,,0.00,Wunderground v.1.15,2013-06-16 02:29:00,
2013-06-15 19:34:00,70.6,52.1,29.84,South,182,6.0,17.0,52,0.00,,,0.00,Wunderground v.1.15,2013-06-16 02:34:00,
2013-06-15 19:39:00,70.1,51.7,29.84,South,188,5.0,17.0,52,0.00,,,0.00,Wunderground v.1.15,2013-06-16 02:39:00,
2013-06-15 19:44:00,69.8,51.9,29.85,South,173,8.0,15.0,53,0.00,,,0.00,Wunderground v.1.15,2013-06-16 02:44:00,
2013-06-15 19:49:00,69.6,51.7,29.85,SSE,168,8.0,17.0,53,0.00,,,0.00,Wunderground v.1.15,2013-06-16 02:49:00,
2013-06-15 19:54:00,69.3,51.9,29.85,SSW,206,8.0,17.0,54,0.00,,,0.00,Wunderground v.1.15,2013-06-16 02:54:00,
2013-06-15 19:59:00,68.8,51.5,29.85,SSW,205,4.0,17.0,54,0.00,,,0.00,Wunderground v.1.15,2013-06-16 02:59:00,
2013-06-15 20:04:00,68.4,51.6,29.85,SSW,192,9.0,14.0,55,0.00,,,0.00,Wunderground v.1.15,2013-06-16 03:04:00,
2013-06-15 20:09:00,67.9,51.6,29.85,SW,221,9.0,16.0,56,0.00,,,0.00,Wunderground v.1.15,2013-06-16 03:09:00,
2013-06-15 20:14:00,67.5,51.7,29.85,South,189,9.0,17.0,57,0.00,,,0.00,Wunderground v.1.15,2013-06-16 03:14:00,
2013-06-15 20:19:00,67.1,51.4,29.85,South,187,5.0,17.0,57,0.00,,,0.00,Wunderground v.1.15,2013-06-16 03:19:00,
2013-06-15 20:24:00,66.8,51.5,29.85,SSW,196,8.0,15.0,58,0.00,,,0.00,Wunderground v.1.15,2013-06-16 03:24:00,
2013-06-15 20:28:00,66.5,51.3,29.85,SSW,197,8.0,16.0,58,0.00,,,0.00,Wunderground v.1.15,2013-06-16 03:28:00,
2013-06-15 20:33:00,66.1,51.4,29.85,South,175,14.0,17.0,59,0.00,,,0.00,Wunderground v.1.15,2013-06-16 03:33:00,
2013-06-15 20:38:00,65.7,51.4,29.85,SSW,207,6.0,17.0,60,0.00,,,0.00,Wunderground v.1.15,2013-06-16 03:38:00,
2013-06-15 20:43:00,65.2,51.0,29.85,SSE,166,10.0,17.0,60,0.00,,,0.00,Wunderground v.1.15,2013-06-16 03:43:00,
2013-06-15 20:48:00,64.8,51.0,29.85,SSW,200,8.0,17.0,61,0.00,,,0.00,Wunderground v.1.15,2013-06-16 03:48:00,
2013-06-15 20:53:00,64.4,51.1,29.85,SSW,193,8.0,17.0,62,0.00,,,0.00,Wunderground v.1.15,2013-06-16 03:53:00,
2013-06-15 20:58:00,64.0,51.1,29.85,South,180,9.0,17.0,63,0.00,,,0.00,Wunderground v.1.15,2013-06-16 03:58:00,
2013-06-15 21:01:00,63.9,51.1,29.85,SW,225,11.0,14.0,63,0.00,,,0.00,Wunderground v.1.15,2013-06-16 04:01:00,
2013-06-15 21:06:00,63.6,51.2,29.86,SSW,199,6.0,16.0,64,0.00,,,0.00,Wunderground v.1.15,2013-06-16 04:06:00,
2013-06-15 21:11:00,63.2,50.8,29.86,SSW,209,7.0,12.0,64,0.00,,,0.00,Wunderground v.1.15,2013-06-16 04:11:00,
2013-06-15 21:16:00,62.9,51.0,29.86,SSW,211,7.0,14.0,65,0.00,,,0.00,Wunderground v.1.15,2013-06-16 04:16:00,
2013-06-15 21:21:00,62.7,50.8,29.86,SSW,192,6.0,17.0,65,0.00,,,0.00,Wunderground v.1.15,2013-06-16 04:21:00,
2013-06-15 21:26:00,62.4,50.9,29.86,South,177,4.0,17.0,66,0.00,,,0.00,Wunderground v.1.15,2013-06-16 04:26:00,
2013-06-15 21:31:00,62.3,50.8,29.87,SSW,207,8.0,15.0,66,0.00,,,0.00,Wunderground v.1.15,2013-06-16 04:31:00,
2013-06-15 21:36:00,62.1,51.0,29.87,SSW,207,12.0,15.0,67,0.00,,,0.00,Wunderground v.1.15,2013-06-16 04:36:00,
2013-06-15 21:41:00,61.9,50.8,29.87,South,182,10.0,10.0,67,0.00,,,0.00,Wunderground v.1.15,2013-06-16 04:41:00,
2013-06-15 21:46:00,61.8,50.7,29.87,SSE,162,5.0,15.0,67,0.00,,,0.00,Wunderground v.1.15,2013-06-16 04:46:00,
2013-06-15 21:51:00,61.7,50.6,29.88,South,178,6.0,11.0,67,0.00,,,0.00,Wunderground v.1.15,2013-06-16 04:51:00,
2013-06-15 21:56:00,61.6,50.9,29.88,South,189,7.0,14.0,68,0.00,,,0.00,Wunderground v.1.15,2013-06-16 04:56:00,
2013-06-15 22:01:00,61.3,50.6,29.88,SSW,192,7.0,12.0,68,0.00,,,0.00,Wunderground v.1.15,2013-06-16 05:01:00,
2013-06-15 22:06:00,61.1,50.8,29.88,SSW,198,8.0,12.0,69,0.00,,,0.00,Wunderground v.1.15,2013-06-16 05:06:00,
2013-06-15 22:11:00,60.9,50.7,29.89,SSW,200,4.0,9.0,69,0.00,,,0.00,Wunderground v.1.15,2013-06-16 05:11:00,
2013-06-15 22:16:00,60.8,50.6,29.89,South,190,5.0,12.0,69,0.00,,,0.00,Wunderground v.1.15,2013-06-16 05:16:00,
2013-06-15 22:21:00,60.6,50.8,29.89,South,190,8.0,13.0,70,0.00,,,0.00,Wunderground v.1.15,2013-06-16 05:21:00,
2013-06-15 22:26:00,60.3,50.9,29.89,SSW,195,9.0,15.0,71,0.00,,,0.00,Wunderground v.1.15,2013-06-16 05:26:00,
2013-06-15 22:31:00,60.0,50.6,29.89,South,180,6.0,12.0,71,0.00,,,0.00,Wunderground v.1.15,2013-06-16 05:31:00,
2013-06-15 22:36:00,59.9,50.5,29.89,SSW,207,6.0,14.0,71,0.00,,,0.00,Wunderground v.1.15,2013-06-16 05:36:00,
2013-06-15 22:41:00,59.9,50.5,29.89,SSW,200,10.0,14.0,71,0.00,,,0.00,Wunderground v.1.15,2013-06-16 05:41:00,
2013-06-15 22:46:00,59.8,50.4,29.89,SSW,193,7.0,14.0,71,0.00,,,0.00,Wunderground v.1.15,2013-06-16 05:46:00,
2013-06-15 22:51:00,59.8,50.4,29.89,South,191,11.0,19.0,71,0.00,,,0.00,Wunderground v.1.15,2013-06-16 05:51:00,
2013-06-15 22:56:00,59.8,50.4,29.89,South,178,5.0,19.0,71,0.00,,,0.00,Wunderground v.1.15,2013-06-16 05:56:00,
2013-06-15 23:01:00,59.7,50.3,29.89,South,188,5.0,14.0,71,0.00,,,0.00,Wunderground v.1.15,2013-06-16 06:01:00,
2013-06-15 23:06:00,59.6,50.6,29.89,SW,217,18.0,18.0,72,0.00,,,0.00,Wunderground v.1.15,2013-06-16 06:06:00,
2013-06-15 23:11:00,59.6,50.6,29.89,SSE,165,6.0,11.0,72,0.00,,,0.00,Wunderground v.1.15,2013-06-16 06:11:00,
2013-06-15 23:16:00,59.5,50.5,29.89,South,179,7.0,12.0,72,0.00,,,0.00,Wunderground v.1.15,2013-06-16 06:16:00,
2013-06-15 23:21:00,59.5,50.5,29.89,SSW,204,6.0,13.0,72,0.00,,,0.00,Wunderground v.1.15,2013-06-16 06:21:00,
2013-06-15 23:26:00,59.3,50.3,29.89,SSW,207,7.0,14.0,72,0.00,,,0.00,Wunderground v.1.15,2013-06-16 06:26:00,
2013-06-15 23:31:00,59.2,50.5,29.89,SSW,206,7.0,13.0,73,0.00,,,0.00,Wunderground v.1.15,2013-06-16 06:31:00,
2013-06-15 23:36:00,59.1,50.5,29.89,South,186,5.0,15.0,73,0.00,,,0.00,Wunderground v.1.15,2013-06-16 06:36:00,
2013-06-15 23:41:00,59.0,50.4,29.89,SW,223,12.0,12.0,73,0.00,,,0.00,Wunderground v.1.15,2013-06-16 06:41:00,
2013-06-15 23:46:00,59.0,50.4,29.89,SSW,197,4.0,13.0,73,0.00,,,0.00,Wunderground v.1.15,2013-06-16 06:46:00,
2013-06-15 23:51:00,59.0,50.4,29.89,SSW,200,7.0,12.0,73,0.00,,,0.00,Wunderground v.1.15,2013-06-16 06:51:00,
2013-06-15 23:56:00,59.0,50.4,29.89,SSW,211,7.0,16.0,73,0.00,,,0.00,Wunderground v.1.15,2013-06-16 06:56:00,